Stations météo

Publicité
Le Luc, France (7675): Température de l'air & dewpoint: 14.09.2019 05:00:00 - 20.09.2019 05:00:00 (CEST)Le Luc, France (7675): Température de l'air 5cm: 14.09.2019 05:00:00 - 20.09.2019 05:00:00 (CEST)Le Luc, France (7675): Vitesse du vent & gusts: 14.09.2019 05:00:00 - 20.09.2019 05:00:00 (CEST)Le Luc, France (7675): Direction du vent: 14.09.2019 05:00:00 - 20.09.2019 05:00:00 (CEST)Le Luc, France (7675): reduced air pressure: 14.09.2019 05:00:00 - 20.09.2019 05:00:00 (CEST)Le Luc, France (7675): visibility: 14.09.2019 05:00:00 - 20.09.2019 05:00:00 (CEST)Le Luc, France (7675): Ensoleillement: 14.09.2019 05:00:00 - 20.09.2019 05:00:00 (CEST)Le Luc, France (7675): Quantités de précipitations: 14.09.2019 05:00:00 - 20.09.2019 05:00:00 (CEST)
Date & Time tt [°C] td [°C] tt 5cm [°C] ff [km/h] ff [knt] fx [km/h] fx [knt] dd ppp [hPa] vv [km] sd [min] rr [mm]
20.09.2019 05:00:00 16,7 15,7 15,6 0 0 5 3 N 1020,0 9 0 0,0
20.09.2019 04:00:00 17,2 16,4 15,9 0 0 6 3 N 1020,0 10 0 0,0
20.09.2019 03:00:00 17,6 16,8 16,7 3 2 5 3 SE 1020,1 10 0 0,0
20.09.2019 02:00:00 17,8 16,8 17,0 0 0 6 4 N 1020,1 9 0 0,0
20.09.2019 01:00:00 18,4 17,4 17,1 3 2 6 3 SSW 1019,9 9 0 0,0
20.09.2019 00:00:00 19,0 17,7 17,6 0 0 4 2 N 1019,5 12 0 0,0
19.09.2019 23:00:00 20,0 18,3 18,4 0 0 6 3 N 1019,4 13 0 0,0
19.09.2019 22:00:00 20,8 18,9 19,2 2 1 6 3 E 1018,7 16 0 0,0
19.09.2019 21:00:00 21,5 18,9 20,1 5 3 6 4 NE 1018,1 19 0 0,0
19.09.2019 20:00:00 22,7 19,1 21,9 6 3 13 7 E 1017,3 28 0 0,0
19.09.2019 19:00:00 23,9 19,0 24,0 10 6 16 9 E 1016,6 33 0 0,0
19.09.2019 18:00:00 24,7 18,6 24,9 14 7 21 11 ESE 1015,9 34 0 0,0
19.09.2019 17:00:00 25,5 17,7 26,0 14 8 27 15 ESE 1015,8 41 0 0,0
19.09.2019 16:00:00 27,0 17,5 28,7 18 10 26 14 ESE 1015,5 37 32 0,0
19.09.2019 15:00:00 28,0 17,5 32,1 16 9 31 17 ESE 1015,5 34 55 0,0
19.09.2019 14:00:00 27,9 17,1 32,6 11 6 25 14 E 1015,7 20 60 0,0
19.09.2019 13:00:00 26,6 18,2 28,0 9 5 18 10 ENE 1016,4 26 39 0,0
19.09.2019 12:00:00 26,1 18,8 29,8 3 2 18 10 NE 1016,7 18 57 0,0
19.09.2019 11:00:00 23,3 18,8 25,6 6 3 11 6 ENE 1016,8 18 52 0,0
19.09.2019 10:00:00 20,5 17,7 21,8 4 2 20 11 SW 1016,8 11 60 0,0
19.09.2019 09:00:00 18,4 17,2 16,8 3 2 9 5 N 1016,4 7 44 0,0
19.09.2019 08:00:00 16,3 15,7 15,3 0 0 6 3 N 1016,0 6 1 0,0
19.09.2019 07:00:00 16,1 15,5 15,0 0 0 6 3 N 1015,6 6 0 0,0
19.09.2019 06:00:00 16,7 16,1 15,3 0 0 6 4 N 1015,0 4,8 0 0,2
19.09.2019 05:00:00 16,5 16,0 15,6 5 3 6 3 E 1015,3 4,1 0 0,0
19.09.2019 04:00:00 17,7 16,7 16,3 0 0 9 5 N 1015,8 6 0 0,0
19.09.2019 03:00:00 18,1 17,5 16,5 2 1 7 4 WNW 1015,4 7 0 0,0
19.09.2019 02:00:00 18,7 17,9 17,1 3 1 9 5 S 1015,7 9 0 0,0
19.09.2019 01:00:00 18,8 17,5 17,5 0 0 7 4 N 1016,0 8 0 0,0
19.09.2019 00:00:00 19,8 18,3 18,5 3 2 8 4 S 1016,1 12 0 0,0
18.09.2019 23:00:00 20,9 18,7 19,2 5 3 7 4 SW 1015,9 14 0 0,0
18.09.2019 22:00:00 21,8 19,0 20,6 3 2 8 5 WSW 1015,6 16 0 0,0
18.09.2019 21:00:00 22,2 18,8 20,7 3 2 11 6 N 1015,4 20 0 0,0
18.09.2019 20:00:00 23,2 19,1 22,4 8 4 13 7 NE 1015,1 25 0 0,0
18.09.2019 19:00:00 24,9 18,6 25,0 12 6 19 11 ESE 1014,5 33 24 0,0
18.09.2019 18:00:00 26,0 19,2 27,2 13 7 21 11 E 1014,2 20 30 0,0
18.09.2019 17:00:00 26,7 18,8 28,5 16 9 25 14 ESE 1014,0 32 20 0,0
18.09.2019 16:00:00 26,9 17,4 28,4 13 7 19 11 SE 1014,5 20 0 0,0
18.09.2019 15:00:00 27,2 17,9 29,1 10 5 17 9 SE 1014,6 39 23 0,0
18.09.2019 14:00:00 27,7 17,5 29,3 5 3 16 9 S 1014,8 29 24 0,0
18.09.2019 13:00:00 26,7 18,3 30,2 6 3 16 8 ESE 1015,2 31 53 0,0
18.09.2019 12:00:00 25,3 19,0 29,4 5 3 13 7 E 1015,2 20 36 0,0
18.09.2019 11:00:00 24,3 18,9 25,0 3 1 11 6 ESE 1015,4 18 41 0,0
18.09.2019 10:00:00 21,0 18,8 20,4 7 4 11 6 N 1015,2 12 4 0,0
18.09.2019 09:00:00 19,6 18,4 19,3 3 1 17 9 SW 1014,9 6 0 0,0
18.09.2019 08:00:00 19,1 18,3 18,4 3 1 6 3 W 1014,3 3,3 0 0,0
18.09.2019 07:00:00 18,4 17,4 18,2 3 1 6 3 NE 1014,0 8 0 0,0
18.09.2019 06:00:00 18,3 17,3 17,6 4 2 6 3 ESE 1014,3 8 0 0,0
18.09.2019 05:00:00 17,6 16,5 16,1 2 1 6 4 N 1014,5 10 0 0,0
18.09.2019 04:00:00 16,9 16,1 15,7 3 1 4 2 N 1014,7 9 0 0,0
18.09.2019 03:00:00 17,3 15,8 16,1 0 0 4 2 N 1014,9 12 0 0,0
18.09.2019 02:00:00 17,7 16,6 16,3 0 0 3 2 N 1015,2 13 0 0,0
18.09.2019 01:00:00 18,1 16,6 17,0 3 1 4 2 ENE 1014,9 14 0 0,0
18.09.2019 00:00:00 19,2 17,3 18,0 2 1 5 3 W 1014,7 18 0 0,0
17.09.2019 23:00:00 20,1 17,3 18,6 2 1 5 3 NNW 1014,3 20 0 0,0
17.09.2019 22:00:00 21,6 18,6 20,4 3 1 13 7 ENE 1014,3 20 0 0,0
17.09.2019 21:00:00 22,5 18,5 21,5 7 4 14 7 NE 1014,1 32 0 0,0
17.09.2019 20:00:00 23,8 18,4 23,1 9 5 16 9 ENE 1013,6 41 0 0,0
17.09.2019 19:00:00 25,7 18,9 26,3 13 7 24 13 ENE 1013,3 43 50 0,0
17.09.2019 18:00:00 26,8 19,4 29,1 18 10 27 15 E 1013,3 36 60 0,0
17.09.2019 17:00:00 28,1 19,9 30,2 18 10 26 14 E 1013,3 36 60 0,0
17.09.2019 16:00:00 28,9 19,5 32,7 14 8 29 16 E 1013,7 36 60 0,0
17.09.2019 15:00:00 29,0 19,0 33,5 16 9 23 12 E 1014,3 34 60 0,0
17.09.2019 14:00:00 29,5 18,3 33,8 9 5 20 11 E 1014,8 33 60 0,0
17.09.2019 13:00:00 28,3 17,5 32,9 3 2 13 7 WNW 1015,5 38 60 0,0
17.09.2019 12:00:00 26,6 16,5 31,6 4 2 10 5 E 1016,2 21 60 0,0
17.09.2019 11:00:00 24,4 16,9 28,8 3 1 8 4 SE 1016,5 18 60 0,0
17.09.2019 10:00:00 21,9 16,2 22,3 0 0 5 3 N 1016,7 38 60 0,0
17.09.2019 09:00:00 17,8 15,6 17,1 0 0 3 2 N 1016,7 20 49 0,0
17.09.2019 08:00:00 15,7 14,6 13,9 0 0 3 2 N 1016,6 19 24 0,0
17.09.2019 07:00:00 15,2 14,1 13,7 2 1 3 1 E 1016,6 13 0 0,0
17.09.2019 06:00:00 16,0 14,9 14,5 0 0 5 3 N 1016,4 19 0 0,0
17.09.2019 05:00:00 16,2 14,6 14,9 2 1 5 3 E 1016,2 19 0 0,0
17.09.2019 04:00:00 18,3 15,2 16,9 3 1 6 3 W 1016,3 38 0 0,0
17.09.2019 03:00:00 19,1 16,0 17,3 3 1 10 5 WNW 1016,7 45 0 0,0
17.09.2019 02:00:00 19,9 16,3 18,6 6 4 13 7 WSW 1016,9 40 0 0,0
17.09.2019 01:00:00 21,5 17,1 20,1 9 5 15 8 W 1017,2 20 0 0,0
17.09.2019 00:00:00 21,6 16,5 20,2 9 5 15 8 WSW 1017,5 49 0 0,0
16.09.2019 23:00:00 22,2 16,2 20,9 9 5 13 7 WSW 1017,4 50 0 0,0
16.09.2019 22:00:00 23,0 16,1 21,7 5 3 12 7 WSW 1017,3 50 0 0,0
16.09.2019 21:00:00 24,2 16,5 22,9 5 3 21 11 W 1017,1 41 0 0,0
16.09.2019 20:00:00 25,8 16,4 24,7 13 7 22 12 W 1016,5 50 0 0,0
16.09.2019 19:00:00 27,0 16,3 27,4 11 6 25 14 WSW 1016,3 48 52 0,0
16.09.2019 18:00:00 28,7 16,6 31,5 14 8 32 17 WSW 1016,2 45 60 0,0
16.09.2019 17:00:00 30,5 16,1 33,1 18 10 29 16 WSW 1016,2 46 60 0,0
16.09.2019 16:00:00 32,2 15,7 38,6 9 5 24 13 SE 1016,1 18 60 0,0
16.09.2019 15:00:00 32,2 14,3 38,3 6 3 19 10 WSW 1016,9 43 60 0,0
16.09.2019 14:00:00 30,7 14,3 37,8 9 5 19 10 WSW 1017,7 42 60 0,0
16.09.2019 13:00:00 29,3 14,7 35,9 8 4 20 11 W 1018,7 39 60 0,0
16.09.2019 12:00:00 27,9 15,5 32,4 3 2 9 5 NE 1019,6 42 60 0,0
16.09.2019 11:00:00 25,1 16,0 29,1 0 0 15 8 N 1020,3 44 60 0,0
16.09.2019 10:00:00 22,2 15,8 24,2 0 0 10 5 N 1020,8 47 60 0,0
16.09.2019 09:00:00 18,5 15,0 16,6 2 1 10 6 S 1020,8 41 60 0,0
16.09.2019 08:00:00 15,6 14,1 14,2 3 2 4 2 ESE 1020,5 36 25 0,0
16.09.2019 07:00:00 15,6 14,3 14,2 0 0 4 2 N 1020,3 43 0 0,0
16.09.2019 06:00:00 16,2 14,4 14,8 0 0 4 2 N 1020,3 46 0 0,0
16.09.2019 05:00:00 16,6 14,4 15,4 0 0 5 3 N 1020,5 47 0 0,0
16.09.2019 04:00:00 17,9 15,0 17,1 0 0 4 2 N 1020,9 49 0 0,0
16.09.2019 03:00:00 17,9 14,4 17,1 2 1 4 2 NNW 1021,2 50 0 0,0
16.09.2019 02:00:00 17,7 13,6 16,6 0 0 7 4 N 1021,5 50 0 0,0
16.09.2019 01:00:00 17,8 14,5 16,6 2 1 6 3 E 1021,6 50 0 0,0
16.09.2019 00:00:00 18,7 14,8 17,1 4 2 5 3 W 1021,7 50 0 0,0
15.09.2019 23:00:00 19,9 14,7 18,3 6 3 11 6 SSE 1021,6 50 0 0,0
15.09.2019 22:00:00 21,3 14,9 19,4 3 2 5 3 W 1021,3 50 0 0,0
15.09.2019 21:00:00 23,4 14,4 21,1 0 0 5 3 N 1021,0 50 0 0,0
15.09.2019 20:00:00 25,5 14,6 23,3 2 1 5 3 NE 1021,0 50 24 0,0
15.09.2019 19:00:00 27,4 13,0 28,5 4 2 12 7 E 1021,4 50 58 0,0
15.09.2019 18:00:00 27,8 12,6 30,0 10 5 18 10 E 1021,8 50 45 0,0
15.09.2019 17:00:00 28,5 12,8 30,4 14 7 24 13 ESE 1021,9 46 32 0,0
15.09.2019 16:00:00 28,8 13,1 33,0 13 7 22 12 ESE 1022,4 50 60 0,0
15.09.2019 15:00:00 28,8 14,2 31,9 12 7 25 13 ESE 1023,1 39 44 0,0
15.09.2019 14:00:00 28,9 14,3 32,3 14 7 25 14 ESE 1023,4 42 41 0,0
15.09.2019 13:00:00 28,8 13,9 32,5 14 7 26 14 ESE 1024,0 47 36 0,0
15.09.2019 12:00:00 26,8 13,9 31,2 0 0 5 3 N 1024,4 45 58 0,0
15.09.2019 11:00:00 23,6 14,9 25,6 0 0 7 4 N 1024,8 44 60 0,0
15.09.2019 10:00:00 19,7 14,5 19,6 0 0 5 3 N 1024,9 20 47 0,0
15.09.2019 09:00:00 15,9 13,7 14,5 0 0 6 3 N 1025,1 39 0 0,0
15.09.2019 08:00:00 13,9 12,8 12,6 4 2 5 3 SE 1025,2 41 0 0,0
15.09.2019 07:00:00 13,9 12,5 12,6 0 0 3 2 N 1025,0 20 0 0,0
15.09.2019 06:00:00 14,1 12,5 13,0 3 2 7 4 ENE 1024,6 46 0 0,0
15.09.2019 05:00:00 14,4 12,8 13,2 0 0 4 2 N 1024,9 50 0 0,0
15.09.2019 04:00:00 15,0 13,0 13,8 0 0 4 2 N 1025,3 20 0 0,0
15.09.2019 03:00:00 15,8 13,5 14,2 0 0 6 3 N 1025,3 20 0 0,0
15.09.2019 02:00:00 15,9 13,6 14,5 0 0 5 3 N 1025,5 20 0 0,0
15.09.2019 01:00:00 16,4 13,7 15,1 0 0 9 5 N 1025,4 50 0 0,0
15.09.2019 00:00:00 17,9 13,8 16,4 2 1 5 3 WSW 1025,4 20 0 0,0
14.09.2019 23:00:00 18,4 14,3 16,6 0 0 3 2 N 1025,4 50 0 0,0
14.09.2019 22:00:00 20,1 14,5 17,7 0 0 2 1 N 1025,5 20 0 0,0
14.09.2019 21:00:00 22,8 14,9 20,6 3 2 4 2 W 1025,6 20 0 0,0
14.09.2019 20:00:00 24,7 13,3 22,6 3 2 8 4 NNW 1025,1 50 22 0,0
14.09.2019 19:00:00 27,0 12,2 27,3 6 4 16 9 SE 1024,9 20 9 0,0
14.09.2019 18:00:00 28,2 11,7 30,5 10 5 21 11 E 1024,7 50 60 0,0
14.09.2019 17:00:00 27,9 12,7 29,7 13 7 24 13 E 1024,4 46 7 0,0
14.09.2019 16:00:00 28,5 11,5 30,8 18 10 28 15 SE 1025,2 20 11 0,0
14.09.2019 15:00:00 29,7 12,6 33,2 19 10 33 18 E 1025,3 20 52 0,0
14.09.2019 14:00:00 29,3 13,9 32,6 17 9 28 15 SE 1025,9 20 41 0,0
14.09.2019 13:00:00 29,5 13,7 32,6 16 8 29 16 ESE 1025,9 40 52 0,0
14.09.2019 12:00:00 27,8 14,8 32,3 3 2 8 4 SE 1026,2 43 58 0,0
14.09.2019 11:00:00 24,8 15,7 26,5 3 2 7 4 ESE 1026,6 38 43 0,0
14.09.2019 10:00:00 20,8 15,1 21,9 0 0 4 2 N 1027,2 39 23 0,0
14.09.2019 09:00:00 18,6 14,7 17,2 0 0 6 3 N 1027,6 20 60 0,0
14.09.2019 08:00:00 14,6 13,1 13,6 3 2 7 4 E 1027,9 30 27 0,0
14.09.2019 07:00:00 14,5 13,2 13,6 0 0 5 3 N 1027,9 38 0 0,0
14.09.2019 06:00:00 14,8 13,3 13,4 3 2 9 5 W 1027,6 20 0 0,0
14.09.2019 05:00:00 15,3 13,5 13,9 2 1 6 4 E 1027,4 39 0 0,0

tt = Température de l'air
td = dewpoint
tt 5cm = Température de l'air 5cm
ff = Vitesse du vent
fx = gusts
dd = Direction du vent
ppp = reduced air pressure
vv = visibility
sd = Ensoleillement
rr = Quantités de précipitations

stations d'obs. à proximité